{"data":{"norad_id":57258,"epoch":"2026-05-24T21:01:18.062400Z","epoch_age_seconds":92530,"freshness":"FRESH","line1":"1 57258U 23094AS  26144.87590350 -.00000005  00000+0  93596-5 0  9991","line2":"2 57258  43.0021 309.4515 0001282 261.2012  98.8695 15.27578966158895","mean_motion":15.27578966,"eccentricity":0.0001282,"inclination_deg":43.0021,"raan_deg":309.4515,"arg_perigee_deg":261.2012,"mean_anomaly_deg":98.8695,"bstar":9.3596e-6,"rev_number":15889,"period_min":94.266812521691,"perigee_km":482.17258775494,"apogee_km":483.93179666382,"semimajor_km":6861.1891922094,"source":"CELESTRAK","updated_at":"2026-05-25T13:38:18.280590Z"}}